Regional Weather Roundup
Issued by NWS

Home | Current Version | Previous Version | Graphics & Text | Print | Product List | Glossary On
Versions: 1 2 3 4 5 6 7 8 9 10 11 12 13 14 15 16 17 18 19 20 21 22 23 24 25 26 27
000
ASUS45 KSLC 252110
RWRUT

UTAH REGIONAL WEATHER ROUNDUP
NATIONAL WEATHER SERVICE SALT LAKE CITY UT
300 PM MDT WED APR 25 2018

UTZ001>011-023>025-252200-

NORTHERN UTAH

CITY           SKY/WX    TMP DP  RH WIND       PRES   REMARKS
BRIGHAM CITY   SUNNY     67  13  12 S3        30.18F
HILL AFB       SUNNY     66  21  18 W6        30.18F
LOGAN          SUNNY     65  30  27 NW7       30.16F
OGDEN          SUNNY     66  18  15 VRB5      30.17F
SALT LAKE CITY MOSUNNY   73  19  13 N8        30.15F
TOOELE VALLEY  SUNNY     68  34  28 N12       30.16F
WENDOVER       SUNNY     67  25  20 SE8       30.17F
HEBER CITY       N/A     70  12  11 SW13G18   30.16F
WEST JORDAN    SUNNY     68  30  24 CALM      30.17F

$$

UTZ011>015-024>027-252200-

CENTRAL/NORTHEAST UTAH

CITY           SKY/WX    TMP DP  RH WIND       PRES   REMARKS
PROVO AIRPORT  SUNNY     69  26  20 W6        30.18F
MOAB/CANYONLAN SUNNY     68  13  12 VRB5      30.17F
DELTA          SUNNY     70  18  13 SW3       30.17F
PRICE          SUNNY     64  12  13 VRB3      30.21F
RICHFIELD      SUNNY     73  18  12 E2        30.16F
ROOSEVELT      SUNNY     63  19  19 SE3       30.22F
VERNAL         SUNNY     61  19  19 S9        30.21F

$$

UTZ013>016-019>022-027-252200-

SOUTHERN UTAH

CITY           SKY/WX    TMP DP  RH WIND       PRES   REMARKS
BRYCE CANYON   SUNNY     68  15  13 W15G29    30.28F
CEDAR CITY     SUNNY     76  25  15 VRB5      30.18F
MILFORD        MOSUNNY   72  25  17 CALM      30.16F
ST GEORGE      CLEAR     83  24  11 NW3       30.05F
HANKSVILLE     SUNNY     70  18  13 W8        30.20F
KANAB          SUNNY     77  19  11 SE1       30.18F
BLANDING         N/A     70   8   9 S10       30.25F

$$

REGIONAL REPORTS     COLORADO/ARIZONA

CITY           SKY/WX    TMP DP  RH WIND       PRES   REMARKS
CRAIG, CO      SUNNY     61  25  25 CALM      30.21F
GRAND JUNCTION SUNNY     67  18  15 SW7       30.16F
RIFLE, CO      SUNNY     66   9  10 VRB3      30.17F
MONTROSE, CO   SUNNY     65  10  11 NW8       30.19F
CORTEZ, CO     SUNNY     69  -5   5 VRB3      30.18F
COLORADO CITY    N/A     81  23  12 S3        30.18F
PAGE, AZ       SUNNY     74  16  11 VRB6      30.15F
GRAND CANYON   SUNNY     72  17  12 NW12G21   30.25F
KINGMAN, AZ    SUNNY     90  23   9 VRB5      30.05F
FLAGSTAFF, AZ  SUNNY     71  21  15 VRB3      30.25F

$$

REGIONAL REPORTS    NEVADA/IDAHO/WYOMING

CITY           SKY/WX    TMP DP  RH WIND       PRES   REMARKS
LAS VEGAS, NV  MOSUNNY   88  23   9 W3        30.00F
ELY, NY        PTSUNNY   72  21  14 VRB7      30.19F
ELKO, NV       SUNNY     72  22  15 SW15G21   30.18F
POCATELLO, ID  SUNNY     69  24  18 W21       30.15F
BURLEY, ID     SUNNY     69  25  19 W16G26    30.13F
EVANSTON, WY   SUNNY     62  19  19 SW10G25   30.23F
ROCK SPRINGS,  SUNNY     61   8  12 W17G24    30.20F
KEMMERER, WY   SUNNY     59  18  20 W13G22    30.22F

$$




USA.gov is the U.S. government's official web portal to all federal, state and local government web resources and services.